| time (UTC) | temp F | wind direction | speed MPH | gust MPH | rain 1hr in | rain 24hr in | rain mn in | humidity % | barometer mb |
| 20260508093504 | 50 | 46 | 0.0 | 2.0 | 0.00 | 0.00 | 0.00 | 87 | 1015.8 |
| 20260508093005 | 50 | 324 | 1.0 | 2.0 | 0.00 | 0.00 | 0.00 | 87 | 1015.8 |
| 20260508092504 | 50 | 331 | 1.0 | 2.0 | 0.00 | 0.00 | 0.00 | 87 | 1015.8 |
| 20260508092005 | 50 | 340 | 1.0 | 2.0 | 0.00 | 0.00 | 0.00 | 86 | 1015.8 |
| 20260508091504 | 50 | 331 | 1.0 | 2.0 | 0.00 | 0.00 | 0.00 | 86 | 1015.9 |
| 20260508090459 | 50 | 46 | 0.0 | 1.0 | 0.00 | 0.00 | 0.00 | 86 | 1015.8 |
| 20260508090007 | 50 | 331 | 0.0 | 1.0 | 0.00 | 0.00 | 0.00 | 86 | 1015.8 |
| 20260508085500 | 51 | 269 | 0.0 | 1.0 | 0.00 | 0.00 | 0.00 | 85 | 1015.9 |
| 20260508085004 | 51 | 314 | 0.0 | 1.0 | 0.00 | 0.00 | 0.00 | 85 | 1015.9 |
| 20260508084004 | 51 | 314 | 0.0 | 2.0 | 0.00 | 0.00 | 0.00 | 83 | 1016.0 |
| 20260508083500 | 52 | 296 | 0.0 | 1.0 | 0.00 | 0.00 | 0.00 | 83 | 1015.9 |
| 20260508083005 | 52 | 314 | 0.0 | 1.0 | 0.00 | 0.00 | 0.00 | 82 | 1016.0 |
| 20260508082500 | 52 | 1 | 0.0 | 1.0 | 0.00 | 0.00 | 0.00 | 81 | 1015.9 |
| 20260508082005 | 53 | 269 | 0.0 | 1.0 | 0.00 | 0.00 | 0.00 | 81 | 1016.0 |
| 20260508081505 | 53 | 35 | 0.0 | 1.0 | 0.00 | 0.00 | 0.00 | 79 | 1016.0 |
| 20260508081000 | 53 | 63 | 0.0 | 1.0 | 0.00 | 0.00 | 0.00 | 79 | 1016.1 |
| 20260508080505 | 53 | 46 | 0.0 | 1.0 | 0.00 | 0.00 | 0.00 | 79 | 1016.1 |
| 20260508075506 | 53 | 178 | 0.0 | 2.0 | 0.00 | 0.00 | 0.00 | 78 | 1016.1 |
| 20260508075000 | 53 | 89 | 0.0 | 3.0 | 0.00 | 0.00 | 0.00 | 78 | 1016.2 |
| 20260508074501 | 53 | 135 | 0.0 | 3.0 | 0.00 | 0.00 | 0.00 | 78 | 1016.3 |
| 20260508074004 | 54 | 206 | 1.0 | 2.0 | 0.00 | 0.00 | 0.00 | 78 | 1016.2 |
| 20260508073501 | 54 | 314 | 0.0 | 2.0 | 0.00 | 0.00 | 0.00 | 77 | 1016.3 |
| 20260508073005 | 54 | 63 | 1.0 | 2.0 | 0.00 | 0.00 | 0.00 | 77 | 1016.2 |
| 20260508072500 | 54 | 117 | 1.0 | 2.0 | 0.00 | 0.00 | 0.00 | 76 | 1016.3 |
| 20260508072005 | 54 | 152 | 1.0 | 2.0 | 0.00 | 0.00 | 0.00 | 76 | 1016.3 |
| 20260508071504 | 54 | 135 | 1.0 | 2.0 | 0.00 | 0.00 | 0.00 | 77 | 1016.3 |
| 20260508071004 | 54 | 89 | 1.0 | 3.0 | 0.00 | 0.00 | 0.00 | 77 | 1016.4 |
| 20260508070502 | 54 | 135 | 1.0 | 3.0 | 0.00 | 0.00 | 0.00 | 77 | 1016.4 |
| 20260508070006 | 55 | 241 | 0.0 | 2.0 | 0.00 | 0.00 | 0.00 | 77 | 1016.4 |
| 20260508065006 | 55 | 89 | 1.0 | 3.0 | 0.00 | 0.00 | 0.00 | 77 | 1016.4 |
| 20260508064505 | 55 | 102 | 2.0 | 3.0 | 0.00 | 0.00 | 0.00 | 77 | 1016.5 |
| 20260508064005 | 55 | 269 | 1.0 | 3.0 | 0.00 | 0.00 | 0.00 | 78 | 1016.6 |
| 20260508063005 | 55 | 206 | 2.0 | 4.0 | 0.00 | 0.00 | 0.00 | 77 | 1016.5 |
| 20260508062505 | 55 | 46 | 0.0 | 5.0 | 0.00 | 0.00 | 0.00 | 77 | 1016.5 |
| 20260508062006 | 55 | 89 | 1.0 | 5.0 | 0.00 | 0.00 | 0.00 | 76 | 1016.5 |
| 20260508061506 | 55 | 89 | 1.0 | 4.0 | 0.00 | 0.00 | 0.00 | 77 | 1016.5 |
| 20260508061004 | 55 | 290 | 1.0 | 4.0 | 0.00 | 0.00 | 0.00 | 77 | 1016.6 |
| 20260508060006 | 55 | 46 | 0.0 | 4.0 | 0.00 | 0.00 | 0.00 | 77 | 1016.5 |
| 20260508055505 | 55 | 322 | 1.0 | 4.0 | 0.00 | 0.00 | 0.00 | 77 | 1016.6 |
| 20260508055004 | 55 | 223 | 1.0 | 4.0 | 0.00 | 0.00 | 0.00 | 77 | 1016.7 |
| 20260508054505 | 55 | 145 | 1.0 | 3.0 | 0.00 | 0.00 | 0.00 | 77 | 1016.5 |
| 20260508054005 | 55 | 344 | 1.0 | 3.0 | 0.00 | 0.00 | 0.00 | 77 | 1016.6 |
| 20260508053506 | 55 | 89 | 1.0 | 3.0 | 0.00 | 0.00 | 0.00 | 77 | 1016.6 |
| 20260508053007 | 55 | 223 | 1.0 | 3.0 | 0.00 | 0.00 | 0.00 | 77 | 1016.6 |
| 20260508052505 | 55 | 229 | 1.0 | 3.0 | 0.00 | 0.00 | 0.00 | 77 | 1016.6 |
| 20260508052006 | 55 | 206 | 1.0 | 3.0 | 0.00 | 0.00 | 0.00 | 77 | 1016.6 |
| 20260508051506 | 55 | 135 | 1.0 | 3.0 | 0.00 | 0.00 | 0.00 | 77 | 1016.5 |
| 20260508050505 | 55 | 165 | 2.0 | 4.0 | 0.00 | 0.00 | 0.00 | 77 | 1016.7 |
| 20260508050006 | 55 | 135 | 2.0 | 5.0 | 0.00 | 0.00 | 0.00 | 76 | 1016.6 |
| 20260508045504 | 56 | 110 | 2.0 | 5.0 | 0.00 | 0.00 | 0.00 | 76 | 1016.7 |
| 20260508045005 | 56 | 117 | 2.0 | 5.0 | 0.00 | 0.00 | 0.00 | 76 | 1016.6 |
| 20260508044505 | 56 | 142 | 2.0 | 5.0 | 0.00 | 0.00 | 0.00 | 76 | 1016.7 |
| 20260508044005 | 56 | 148 | 2.0 | 5.0 | 0.00 | 0.00 | 0.00 | 76 | 1016.8 |
| 20260508043505 | 56 | 46 | 1.0 | 5.0 | 0.00 | 0.00 | 0.00 | 75 | 1016.7 |
| 20260508043006 | 56 | 117 | 2.0 | 5.0 | 0.00 | 0.00 | 0.00 | 74 | 1016.8 |
| 20260508042007 | 57 | 135 | 2.0 | 6.0 | 0.00 | 0.00 | 0.00 | 74 | 1016.8 |
| 20260508041506 | 57 | 135 | 2.0 | 6.0 | 0.00 | 0.00 | 0.00 | 72 | 1016.9 |
| 20260508040504 | 57 | 223 | 2.0 | 4.0 | 0.00 | 0.00 | 0.00 | 72 | 1016.9 |
| 20260508040007 | 57 | 152 | 1.0 | 3.0 | 0.00 | 0.00 | 0.00 | 71 | 1016.9 |
| 20260508035506 | 57 | 187 | 1.0 | 4.0 | 0.00 | 0.00 | 0.00 | 70 | 1016.9 |
| 20260508034506 | 57 | 170 | 1.0 | 3.0 | 0.00 | 0.00 | 0.00 | 71 | 1016.9 |
| 20260508034005 | 57 | 135 | 1.0 | 4.0 | 0.00 | 0.00 | 0.00 | 72 | 1016.8 |
| 20260508033505 | 57 | 135 | 1.0 | 4.0 | 0.00 | 0.00 | 0.00 | 72 | 1016.8 |
| 20260508032506 | 58 | 157 | 1.0 | 4.0 | 0.00 | 0.00 | 0.00 | 72 | 1016.7 |
| 20260508032005 | 58 | 229 | 1.0 | 5.0 | 0.00 | 0.00 | 0.00 | 72 | 1016.8 |
| 20260508031505 | 58 | 149 | 2.0 | 5.0 | 0.00 | 0.00 | 0.00 | 72 | 1016.8 |
| 20260508030505 | 58 | 167 | 1.0 | 5.0 | 0.00 | 0.00 | 0.00 | 72 | 1016.8 |
| 20260508030008 | 58 | 269 | 1.0 | 7.0 | 0.00 | 0.00 | 0.00 | 72 | 1017.0 |
| 20260508025005 | 58 | 117 | 2.0 | 5.0 | 0.00 | 0.00 | 0.00 | 71 | 1017.0 |
| 20260508024505 | 59 | 122 | 3.0 | 5.0 | 0.00 | 0.00 | 0.00 | 70 | 1017.0 |
| 20260508024005 | 59 | 269 | 2.0 | 5.0 | 0.00 | 0.00 | 0.00 | 70 | 1016.9 |
| 20260508023504 | 59 | 89 | 2.0 | 5.0 | 0.00 | 0.00 | 0.00 | 70 | 1017.0 |
| 20260508023005 | 59 | 68 | 2.0 | 5.0 | 0.00 | 0.00 | 0.00 | 70 | 1016.9 |
| 20260508022505 | 59 | 117 | 2.0 | 5.0 | 0.00 | 0.00 | 0.00 | 70 | 1017.0 |
| 20260508021505 | 60 | 219 | 1.0 | 3.0 | 0.00 | 0.00 | 0.00 | 70 | 1017.1 |
| 20260508021006 | 60 | 89 | 1.0 | 6.0 | 0.00 | 0.00 | 0.00 | 70 | 1017.0 |
| 20260508020505 | 60 | 209 | 2.0 | 6.0 | 0.00 | 0.00 | 0.00 | 69 | 1017.1 |
| 20260508020006 | 60 | 135 | 1.0 | 4.0 | 0.00 | 0.00 | 0.00 | 70 | 1017.0 |
| 20260508015504 | 61 | 190 | 1.0 | 6.0 | 0.00 | 0.00 | 0.00 | 69 | 1017.1 |
| 20260508015005 | 61 | 135 | 2.0 | 6.0 | 0.00 | 0.00 | 0.00 | 69 | 1017.1 |
| 20260508014006 | 61 | 56 | 3.0 | 5.0 | 0.00 | 0.00 | 0.00 | 69 | 1017.3 |
| 20260508013505 | 61 | 46 | 2.0 | 6.0 | 0.00 | 0.00 | 0.00 | 69 | 1017.5 |
| 20260508013006 | 61 | 178 | 2.0 | 6.0 | 0.00 | 0.00 | 0.00 | 69 | 1017.5 |
| 20260508012505 | 61 | 115 | 3.0 | 6.0 | 0.00 | 0.00 | 0.00 | 69 | 1017.6 |
| 20260508012005 | 61 | 135 | 2.0 | 6.0 | 0.00 | 0.00 | 0.00 | 69 | 1017.6 |
| 20260508011506 | 61 | 213 | 3.0 | 8.0 | 0.00 | 0.00 | 0.00 | 70 | 1017.7 |
| 20260508011004 | 61 | 206 | 4.0 | 8.0 | 0.00 | 0.00 | 0.00 | 70 | 1017.8 |
| 20260508005505 | 61 | 231 | 3.0 | 8.0 | 0.00 | 0.00 | 0.00 | 70 | 1017.9 |
| 20260508004505 | 61 | 89 | 2.0 | 7.0 | 0.00 | 0.00 | 0.00 | 74 | 1017.8 |
| 20260508003505 | 60 | 127 | 2.0 | 8.0 | 0.00 | 0.00 | 0.00 | 72 | 1017.8 |
| 20260508003006 | 60 | 314 | 2.0 | 5.0 | 0.00 | 0.00 | 0.00 | 74 | 1017.9 |
| 20260508002505 | 60 | 314 | 1.0 | 7.0 | 0.00 | 0.00 | 0.00 | 75 | 1017.8 |
| 20260508001506 | 61 | 250 | 2.0 | 6.0 | 0.00 | 0.00 | 0.00 | 71 | 1017.8 |
| 20260508001005 | 61 | 223 | 2.0 | 6.0 | 0.00 | 0.00 | 0.00 | 70 | 1017.9 |
| 20260508000006 | 61 | 154 | 3.0 | 7.0 | 0.00 | 0.00 | 0.00 | 68 | 1017.9 |
| 20260507235005 | 62 | 296 | 2.0 | 8.0 | 0.00 | 0.00 | 0.00 | 68 | 1017.9 |
| 20260507234006 | 62 | 125 | 2.0 | 6.0 | 0.00 | 0.00 | 0.00 | 64 | 1017.9 |
| 20260507233505 | 62 | 163 | 3.0 | 6.0 | 0.00 | 0.00 | 0.00 | 68 | 1017.9 |
| 20260507233006 | 62 | 286 | 2.0 | 6.0 | 0.00 | 0.00 | 0.00 | 67 | 1018.0 |
| 20260507232005 | 62 | 117 | 2.0 | 7.0 | 0.00 | 0.00 | 0.00 | 69 | 1018.1 |
| 20260507231505 | 61 | 108 | 2.0 | 7.0 | 0.00 | 0.00 | 0.00 | 70 | 1018.1 |
| 20260507230506 | 60 | 115 | 3.0 | 7.0 | 0.00 | 0.00 | 0.00 | 70 | 1018.1 |
| 20260507230007 | 60 | 89 | 2.0 | 7.0 | 0.00 | 0.00 | 0.00 | 71 | 1018.2 |
| 20260507225505 | 61 | 151 | 3.0 | 7.0 | 0.00 | 0.00 | 0.00 | 70 | 1018.2 |
| 20260507224505 | 62 | 181 | 2.0 | 6.0 | 0.00 | 0.00 | 0.00 | 73 | 1018.2 |
| 20260507224005 | 61 | 178 | 3.0 | 8.0 | 0.00 | 0.00 | 0.00 | 71 | 1018.3 |
| 20260507223504 | 61 | 169 | 3.0 | 8.0 | 0.00 | 0.00 | 0.00 | 72 | 1018.3 |
| 20260507223006 | 61 | 89 | 2.0 | 5.0 | 0.00 | 0.00 | 0.00 | 71 | 1018.3 |
| 20260507222505 | 61 | 206 | 2.0 | 6.0 | 0.00 | 0.00 | 0.00 | 71 | 1018.4 |
| 20260507222006 | 61 | 206 | 3.0 | 7.0 | 0.00 | 0.00 | 0.00 | 72 | 1018.5 |
| 20260507221506 | 60 | 108 | 4.0 | 9.0 | 0.00 | 0.00 | 0.00 | 73 | 1018.5 |
| 20260507221006 | 61 | 157 | 4.0 | 9.0 | 0.00 | 0.00 | 0.00 | 71 | 1018.6 |
| 20260507220505 | 61 | 289 | 3.0 | 9.0 | 0.00 | 0.00 | 0.00 | 74 | 1018.8 |
| 20260507215006 | 62 | 274 | 2.0 | 9.0 | 0.00 | 0.00 | 0.00 | 72 | 1018.9 |
| 20260507214505 | 61 | 122 | 2.0 | 9.0 | 0.00 | 0.00 | 0.00 | 72 | 1018.9 |
| 20260507214006 | 61 | 290 | 3.0 | 9.0 | 0.00 | 0.00 | 0.00 | 71 | 1018.8 |
| 20260507213005 | 62 | 212 | 2.0 | 9.0 | 0.00 | 0.00 | 0.00 | 72 | 1019.0 |
| 20260507212505 | 62 | 197 | 2.0 | 9.0 | 0.00 | 0.00 | 0.00 | 74 | 1019.0 |
| 20260507212006 | 62 | 169 | 3.0 | 8.0 | 0.00 | 0.00 | 0.00 | 72 | 1019.0 |
| 20260507211506 | 62 | 122 | 3.0 | 10.0 | 0.00 | 0.00 | 0.00 | 72 | 1019.0 |
| 20260507211005 | 62 | 190 | 3.0 | 6.0 | 0.00 | 0.00 | 0.00 | 72 | 1019.1 |
| 20260507205505 | 61 | 115 | 3.0 | 7.0 | 0.00 | 0.00 | 0.00 | 75 | 1019.2 |
| 20260507204005 | 60 | 264 | 3.0 | 7.0 | 0.00 | 0.00 | 0.00 | 74 | 1019.4 |
| 20260507203504 | 60 | 197 | 3.0 | 7.0 | 0.00 | 0.00 | 0.00 | 75 | 1019.5 |
| 20260507203006 | 60 | 229 | 2.0 | 7.0 | 0.00 | 0.00 | 0.00 | 75 | 1019.6 |
| 20260507202006 | 60 | 171 | 3.0 | 8.0 | 0.00 | 0.00 | 0.00 | 77 | 1019.7 |
| 20260507201505 | 60 | 269 | 2.0 | 7.0 | 0.00 | 0.00 | 0.00 | 77 | 1019.7 |
| 20260507201006 | 60 | 308 | 3.0 | 7.0 | 0.00 | 0.00 | 0.00 | 75 | 1019.8 |
| 20260507200505 | 59 | 234 | 3.0 | 6.0 | 0.00 | 0.00 | 0.00 | 75 | 1019.8 |
| 20260507200005 | 59 | 296 | 2.0 | 5.0 | 0.00 | 0.00 | 0.00 | 78 | 1019.9 |
| 20260507195505 | 59 | 135 | 2.0 | 8.0 | 0.00 | 0.00 | 0.00 | 74 | 1019.9 |
| 20260507195005 | 60 | 258 | 4.0 | 8.0 | 0.00 | 0.00 | 0.00 | 74 | 1019.9 |
| 20260507194506 | 59 | 89 | 3.0 | 7.0 | 0.00 | 0.00 | 0.00 | 76 | 1020.0 |
| 20260507194004 | 59 | 117 | 2.0 | 10.0 | 0.00 | 0.00 | 0.00 | 77 | 1020.1 |
| 20260507193005 | 58 | 46 | 2.0 | 7.0 | 0.00 | 0.00 | 0.00 | 77 | 1020.1 |
| 20260507192505 | 58 | 89 | 2.0 | 8.0 | 0.00 | 0.00 | 0.00 | 77 | 1020.1 |
| 20260507192004 | 58 | 183 | 3.0 | 8.0 | 0.00 | 0.00 | 0.00 | 77 | 1020.2 |
| 20260507190504 | 57 | 264 | 4.0 | 9.0 | 0.00 | 0.00 | 0.00 | 79 | 1020.3 |
| 20260507185504 | 57 | 46 | 3.0 | 7.0 | 0.00 | 0.00 | 0.00 | 75 | 1020.3 |
| 20260507185005 | 57 | 178 | 2.0 | 8.0 | 0.00 | 0.00 | 0.00 | 75 | 1020.3 |
| 20260507184505 | 57 | 165 | 3.0 | 8.0 | 0.00 | 0.00 | 0.00 | 77 | 1020.4 |
| 20260507184005 | 57 | 306 | 3.0 | 8.0 | 0.00 | 0.00 | 0.00 | 77 | 1020.4 |
| 20260507183505 | 56 | 272 | 3.0 | 8.0 | 0.00 | 0.00 | 0.00 | 76 | 1020.4 |
| 20260507183006 | 56 | 197 | 3.0 | 8.0 | 0.00 | 0.00 | 0.00 | 76 | 1020.5 |
| 20260507181506 | 56 | 213 | 2.0 | 7.0 | 0.00 | 0.00 | 0.00 | 75 | 1020.4 |
| 20260507181004 | 56 | 20 | 2.0 | 7.0 | 0.00 | 0.00 | 0.00 | 75 | 1020.4 |
| 20260507180504 | 57 | 161 | 2.0 | 5.0 | 0.00 | 0.00 | 0.00 | 76 | 1020.4 |
| 20260507180006 | 57 | 135 | 1.0 | 6.0 | 0.00 | 0.00 | 0.00 | 76 | 1020.4 |
| 20260507175505 | 57 | 269 | 1.0 | 6.0 | 0.00 | 0.00 | 0.00 | 76 | 1020.4 |
| 20260507175005 | 57 | 201 | 2.0 | 5.0 | 0.00 | 0.00 | 0.00 | 74 | 1020.4 |
| 20260507174504 | 56 | 193 | 2.0 | 5.0 | 0.00 | 0.00 | 0.00 | 74 | 1020.4 |
| 20260507174005 | 56 | 305 | 3.0 | 5.0 | 0.00 | 0.00 | 0.00 | 75 | 1020.4 |
| 20260507173506 | 56 | 1 | 2.0 | 5.0 | 0.00 | 0.00 | 0.00 | 74 | 1020.5 |
| 20260507173006 | 56 | 299 | 2.0 | 6.0 | 0.00 | 0.00 | 0.00 | 74 | 1020.5 |
| 20260507172504 | 57 | 299 | 2.0 | 6.0 | 0.00 | 0.00 | 0.00 | 73 | 1020.4 |
| 20260507172005 | 57 | 237 | 2.0 | 5.0 | 0.00 | 0.00 | 0.00 | 71 | 1020.4 |
| 20260507170506 | 57 | 234 | 2.0 | 4.0 | 0.00 | 0.00 | 0.00 | 72 | 1020.4 |
| 20260507170005 | 56 | 306 | 2.0 | 5.0 | 0.00 | 0.00 | 0.00 | 71 | 1020.4 |
| 20260507165505 | 56 | 142 | 1.0 | 6.0 | 0.00 | 0.00 | 0.00 | 73 | 1020.4 |
| 20260507165005 | 56 | 279 | 2.0 | 6.0 | 0.00 | 0.00 | 0.00 | 72 | 1020.4 |
| 20260507164506 | 56 | 314 | 3.0 | 6.0 | 0.00 | 0.00 | 0.00 | 72 | 1020.3 |
| 20260507164006 | 56 | 127 | 2.0 | 5.0 | 0.00 | 0.00 | 0.00 | 72 | 1020.3 |
| 20260507163005 | 56 | 206 | 2.0 | 5.0 | 0.00 | 0.00 | 0.00 | 74 | 1020.4 |
| 20260507162004 | 56 | 262 | 2.0 | 6.0 | 0.00 | 0.00 | 0.00 | 75 | 1020.4 |
| 20260507161505 | 55 | 193 | 2.0 | 4.0 | 0.00 | 0.00 | 0.00 | 74 | 1020.5 |
| 20260507161006 | 55 | 216 | 2.0 | 4.0 | 0.00 | 0.00 | 0.00 | 74 | 1020.4 |
| 20260507160504 | 55 | 213 | 2.0 | 4.0 | 0.00 | 0.00 | 0.00 | 74 | 1020.4 |
| 20260507160006 | 55 | 178 | 2.0 | 4.0 | 0.00 | 0.00 | 0.00 | 74 | 1020.4 |
| 20260507155005 | 56 | 336 | 2.0 | 4.0 | 0.00 | 0.00 | 0.00 | 72 | 1020.6 |
| 20260507154506 | 56 | 135 | 2.0 | 5.0 | 0.00 | 0.00 | 0.00 | 72 | 1020.6 |
| 20260507154007 | 56 | 145 | 2.0 | 5.0 | 0.00 | 0.00 | 0.00 | 73 | 1020.6 |
| 20260507153505 | 55 | 68 | 1.0 | 5.0 | 0.00 | 0.00 | 0.00 | 76 | 1020.7 |
| 20260507153006 | 55 | 241 | 1.0 | 5.0 | 0.00 | 0.00 | 0.00 | 76 | 1020.6 |
| 20260507152505 | 55 | 28 | 2.0 | 5.0 | 0.00 | 0.00 | 0.00 | 76 | 1020.7 |
| 20260507152005 | 55 | 254 | 1.0 | 4.0 | 0.00 | 0.00 | 0.00 | 77 | 1020.6 |
| 20260507151005 | 54 | 113 | 2.0 | 5.0 | 0.00 | 0.00 | 0.00 | 76 | 1020.6 |
| 20260507150504 | 54 | 129 | 2.0 | 4.0 | 0.00 | 0.00 | 0.00 | 77 | 1020.7 |
| 20260507150006 | 54 | 122 | 1.0 | 3.0 | 0.00 | 0.00 | 0.00 | 78 | 1020.6 |
| 20260507145508 | 53 | 127 | 1.0 | 4.0 | 0.00 | 0.00 | 0.00 | 78 | 1020.7 |
| 20260507145005 | 53 | 142 | 2.0 | 4.0 | 0.00 | 0.00 | 0.00 | 77 | 1020.8 |
| 20260507144504 | 53 | 148 | 2.0 | 3.0 | 0.00 | 0.00 | 0.00 | 77 | 1020.8 |
| 20260507144006 | 53 | 149 | 1.0 | 3.0 | 0.00 | 0.00 | 0.00 | 78 | 1020.8 |
| 20260507143505 | 53 | 46 | 1.0 | 3.0 | 0.00 | 0.00 | 0.00 | 79 | 1020.8 |
| 20260507143006 | 53 | 237 | 2.0 | 3.0 | 0.00 | 0.00 | 0.00 | 78 | 1020.6 |
| 20260507142005 | 53 | 124 | 2.0 | 4.0 | 0.00 | 0.00 | 0.00 | 79 | 1020.6 |
| 20260507141004 | 53 | 117 | 1.0 | 3.0 | 0.00 | 0.00 | 0.00 | 80 | 1020.4 |
| 20260507140006 | 53 | 152 | 1.0 | 3.0 | 0.00 | 0.00 | 0.00 | 80 | 1020.3 |
| 20260507135505 | 53 | 117 | 1.0 | 3.0 | 0.00 | 0.00 | 0.00 | 79 | 1020.4 |
| 20260507135004 | 53 | 113 | 1.0 | 3.0 | 0.00 | 0.00 | 0.00 | 80 | 1020.4 |
| 20260507134004 | 53 | 135 | 1.0 | 3.0 | 0.00 | 0.00 | 0.00 | 80 | 1020.3 |
| 20260507133504 | 53 | 127 | 1.0 | 3.0 | 0.00 | 0.00 | 0.00 | 80 | 1020.3 |
| 20260507132007 | 53 | 150 | 2.0 | 4.0 | 0.00 | 0.00 | 0.00 | 80 | 1020.1 |
| 20260507131505 | 53 | 142 | 3.0 | 4.0 | 0.00 | 0.00 | 0.00 | 80 | 1020.1 |
| 20260507131005 | 53 | 170 | 3.0 | 5.0 | 0.00 | 0.00 | 0.00 | 80 | 1020.1 |
| 20260507130504 | 53 | 139 | 3.0 | 5.0 | 0.00 | 0.00 | 0.00 | 80 | 1020.2 |
| 20260507130006 | 53 | 135 | 2.0 | 4.0 | 0.00 | 0.00 | 0.00 | 80 | 1020.2 |
| 20260507125504 | 53 | 108 | 1.0 | 3.0 | 0.00 | 0.00 | 0.00 | 80 | 1020.2 |
| 20260507125005 | 53 | 108 | 1.0 | 5.0 | 0.00 | 0.00 | 0.00 | 80 | 1020.3 |
| 20260507124505 | 53 | 223 | 2.0 | 5.0 | 0.00 | 0.00 | 0.00 | 79 | 1020.3 |
| 20260507124006 | 53 | 167 | 2.0 | 5.0 | 0.00 | 0.00 | 0.00 | 79 | 1020.3 |
| 20260507123500 | 53 | 117 | 2.0 | 4.0 | 0.00 | 0.00 | 0.00 | 80 | 1020.3 |
| 20260507123005 | 53 | 157 | 1.0 | 3.0 | 0.00 | 0.00 | 0.00 | 79 | 1020.4 |
| 20260507122500 | 53 | 28 | 1.0 | 2.0 | 0.00 | 0.00 | 0.00 | 79 | 1020.4 |
| 20260507121506 | 53 | 108 | 1.0 | 3.0 | 0.00 | 0.00 | 0.00 | 78 | 1020.5 |
| 20260507121004 | 53 | 135 | 1.0 | 3.0 | 0.00 | 0.00 | 0.00 | 78 | 1020.5 |
| 20260507120008 | 53 | 142 | 2.0 | 3.0 | 0.00 | 0.00 | 0.00 | 77 | 1020.5 |
| 20260507115506 | 53 | 147 | 2.0 | 3.0 | 0.00 | 0.00 | 0.00 | 78 | 1020.5 |
| 20260507115005 | 53 | 127 | 2.0 | 3.0 | 0.00 | 0.00 | 0.00 | 78 | 1020.6 |
| 20260507114505 | 53 | 127 | 2.0 | 3.0 | 0.00 | 0.00 | 0.00 | 77 | 1020.6 |
| 20260507114005 | 53 | 135 | 1.0 | 4.0 | 0.00 | 0.00 | 0.00 | 78 | 1020.6 |
| 20260507113504 | 53 | 156 | 1.0 | 4.0 | 0.00 | 0.00 | 0.00 | 78 | 1020.6 |
| 20260507113006 | 53 | 135 | 1.0 | 3.0 | 0.00 | 0.00 | 0.00 | 78 | 1020.7 |
| 20260507112505 | 53 | 195 | 1.0 | 5.0 | 0.00 | 0.00 | 0.00 | 78 | 1020.6 |
| 20260507111005 | 53 | 157 | 2.0 | 3.0 | 0.00 | 0.00 | 0.00 | 78 | 1020.6 |
| 20260507110504 | 53 | 157 | 1.0 | 5.0 | 0.00 | 0.00 | 0.00 | 77 | 1020.6 |
| 20260507105505 | 53 | 135 | 2.0 | 5.0 | 0.00 | 0.00 | 0.00 | 77 | 1020.6 |
| 20260507104001 | 53 | 143 | 2.0 | 5.0 | 0.00 | 0.00 | 0.00 | 77 | 1020.6 |
| 20260507103500 | 53 | 157 | 2.0 | 5.0 | 0.00 | 0.00 | 0.00 | 77 | 1020.6 |
| 20260507103006 | 53 | 148 | 2.0 | 5.0 | 0.00 | 0.00 | 0.00 | 77 | 1020.6 |
| 20260507102500 | 53 | 149 | 3.0 | 5.0 | 0.00 | 0.00 | 0.00 | 77 | 1020.6 |
| 20260507102007 | 53 | 125 | 3.0 | 5.0 | 0.00 | 0.00 | 0.00 | 77 | 1020.7 |
| 20260507101001 | 53 | 152 | 2.0 | 5.0 | 0.00 | 0.00 | 0.00 | 77 | 1020.7 |
| 20260507100500 | 53 | 157 | 3.0 | 6.0 | 0.00 | 0.00 | 0.00 | 77 | 1020.7 |
| 20260507100005 | 53 | 149 | 3.0 | 6.0 | 0.00 | 0.00 | 0.00 | 77 | 1020.8 |
| 20260507095500 | 53 | 150 | 3.0 | 6.0 | 0.00 | 0.00 | 0.00 | 77 | 1020.7 |
| 20260507095000 | 53 | 132 | 3.0 | 6.0 | 0.00 | 0.00 | 0.00 | 77 | 1020.7 |
| 20260507094506 | 53 | 120 | 3.0 | 8.0 | 0.00 | 0.00 | 0.00 | 77 | 1020.6 |
| 20260507094002 | 53 | 113 | 3.0 | 8.0 | 0.00 | 0.00 | 0.00 | 77 | 1020.7 |